| time (UTC) | temp C | wind direction | speed KPH | gust KPH | rain 1hr cm | rain 24hr cm | rain mn cm | humidity % | barometer mb |
| 20260502210551 | 9 | 339 | 3.2 | 4.8 | 0.00 | 0.00 | 0.00 | 51 | 1013.5 |
| 20260502210052 | 9 | 338 | 1.6 | 3.2 | 0.00 | 0.00 | 0.00 | 53 | 1013.6 |
| 20260502205551 | 9 | 269 | 3.2 | 6.4 | 0.00 | 0.00 | 0.00 | 52 | 1013.6 |
| 20260502205051 | 9 | 226 | 6.4 | 9.7 | 0.00 | 0.00 | 0.00 | 53 | 1013.7 |
| 20260502204552 | 9 | 287 | 3.2 | 6.4 | 0.00 | 0.00 | 0.00 | 54 | 1014.0 |
| 20260502204051 | 10 | 50 | 3.2 | 4.8 | 0.00 | 0.00 | 0.00 | 53 | 1013.8 |
| 20260502203551 | 10 | 280 | 4.8 | 8.0 | 0.00 | 0.00 | 0.00 | 51 | 1013.8 |
| 20260502203052 | 10 | 65 | 3.2 | 6.4 | 0.00 | 0.00 | 0.00 | 51 | 1013.8 |
| 20260502202551 | 10 | 232 | 3.2 | 4.8 | 0.00 | 0.00 | 0.00 | 49 | 1013.8 |
| 20260502202051 | 9 | 234 | 3.2 | 6.4 | 0.00 | 0.00 | 0.00 | 50 | 1014.0 |
| 20260502201552 | 9 | 50 | 4.8 | 9.7 | 0.00 | 0.00 | 0.00 | 51 | 1014.0 |
| 20260502201051 | 9 | 6 | 3.2 | 6.4 | 0.00 | 0.00 | 0.00 | 49 | 1014.1 |
| 20260502200551 | 9 | 91 | 1.6 | 4.8 | 0.00 | 0.00 | 0.00 | 51 | 1014.0 |
| 20260502200051 | 9 | 255 | 6.4 | 11.3 | 0.00 | 0.00 | 0.00 | 49 | 1014.1 |
| 20260502195551 | 9 | 325 | 6.4 | 9.7 | 0.00 | 0.00 | 0.00 | 50 | 1014.0 |
| 20260502195051 | 9 | 189 | 3.2 | 6.4 | 0.00 | 0.00 | 0.00 | 50 | 1014.1 |
| 20260502194551 | 9 | 302 | 3.2 | 4.8 | 0.00 | 0.00 | 0.00 | 51 | 1014.1 |
| 20260502194051 | 10 | 332 | 4.8 | 11.3 | 0.00 | 0.00 | 0.00 | 50 | 1014.0 |
| 20260502193552 | 10 | 286 | 4.8 | 9.7 | 0.00 | 0.00 | 0.00 | 51 | 1014.0 |
| 20260502193051 | 10 | 291 | 4.8 | 9.7 | 0.00 | 0.00 | 0.00 | 47 | 1014.1 |
| 20260502192551 | 10 | 310 | 6.4 | 12.9 | 0.00 | 0.00 | 0.00 | 47 | 1014.2 |
| 20260502192101 | 9 | 215 | 4.8 | 6.4 | 0.00 | 0.00 | 0.00 | 48 | 1014.1 |
| 20260502191551 | 10 | 333 | 3.2 | 4.8 | 0.00 | 0.00 | 0.00 | 49 | 1014.1 |
| 20260502191052 | 10 | 294 | 6.4 | 8.0 | 0.00 | 0.00 | 0.00 | 48 | 1014.1 |
| 20260502190551 | 10 | 330 | 3.2 | 6.4 | 0.00 | 0.00 | 0.00 | 50 | 1014.1 |
| 20260502190052 | 10 | 45 | 4.8 | 8.0 | 0.00 | 0.00 | 0.00 | 49 | 1014.1 |
| 20260502185552 | 10 | 248 | 6.4 | 12.9 | 0.00 | 0.00 | 0.00 | 48 | 1014.1 |
| 20260502185052 | 10 | 257 | 9.7 | 14.5 | 0.00 | 0.00 | 0.00 | 48 | 1014.2 |
| 20260502184552 | 10 | 240 | 4.8 | 6.4 | 0.00 | 0.00 | 0.00 | 48 | 1014.2 |
| 20260502184051 | 10 | 267 | 8.0 | 12.9 | 0.00 | 0.00 | 0.00 | 46 | 1014.2 |
| 20260502183552 | 10 | 256 | 4.8 | 8.0 | 0.00 | 0.00 | 0.00 | 47 | 1014.2 |
| 20260502183052 | 10 | 246 | 6.4 | 11.3 | 0.00 | 0.00 | 0.00 | 49 | 1014.2 |
| 20260502182551 | 10 | 310 | 3.2 | 4.8 | 0.00 | 0.00 | 0.00 | 49 | 1014.3 |
| 20260502182051 | 10 | 268 | 9.7 | 16.1 | 0.00 | 0.00 | 0.00 | 47 | 1014.3 |
| 20260502181552 | 10 | 270 | 6.4 | 11.3 | 0.00 | 0.00 | 0.00 | 46 | 1014.3 |
| 20260502180606 | 10 | 182 | 1.6 | 3.2 | 0.00 | 0.00 | 0.00 | 47 | 1014.2 |
| 20260502164051 | 11 | 353 | 4.8 | 6.4 | 0.00 | 0.00 | 0.00 | 46 | 1014.6 |
| 20260502163552 | 11 | 80 | 3.2 | 6.4 | 0.00 | 0.00 | 0.00 | 46 | 1014.7 |
| 20260502163051 | 11 | 355 | 4.8 | 8.0 | 0.00 | 0.00 | 0.00 | 47 | 1014.6 |
| 20260502162551 | 11 | 72 | 4.8 | 9.7 | 0.00 | 0.00 | 0.00 | 48 | 1014.7 |
| 20260502162051 | 11 | 169 | 3.2 | 6.4 | 0.00 | 0.00 | 0.00 | 44 | 1014.7 |
| 20260502161102 | 10 | 54 | 4.8 | 9.7 | 0.00 | 0.00 | 0.00 | 47 | 1014.9 |
| 20260502160551 | 10 | 318 | 4.8 | 8.0 | 0.00 | 0.00 | 0.00 | 46 | 1015.0 |
| 20260502152051 | 10 | 10 | 3.2 | 4.8 | 0.00 | 0.00 | 0.00 | 49 | 1015.0 |
| 20260502151551 | 10 | 43 | 3.2 | 6.4 | 0.00 | 0.00 | 0.00 | 48 | 1015.0 |
| 20260502151052 | 10 | 264 | 6.4 | 11.3 | 0.00 | 0.00 | 0.00 | 46 | 1015.0 |
| 20260502150554 | 9 | 305 | 3.2 | 4.8 | 0.00 | 0.00 | 0.00 | 51 | 1014.8 |
| 20260502130556 | 5 | 314 | 3.2 | 4.8 | 0.00 | 0.00 | 0.00 | 67 | 1015.1 |
| 20260502123552 | 4 | 348 | 0.0 | 1.6 | 0.00 | 0.00 | 0.00 | 72 | 1015.1 |
| 20260502123052 | 4 | 32 | 3.2 | 3.2 | 0.00 | 0.00 | 0.00 | 72 | 1015.0 |
| 20260502122551 | 4 | 10 | 1.6 | 3.2 | 0.00 | 0.00 | 0.00 | 72 | 1015.1 |
| 20260502122052 | 4 | 22 | 1.6 | 3.2 | 0.00 | 0.00 | 0.00 | 73 | 1015.1 |
| 20260502121551 | 4 | 76 | 0.0 | 1.6 | 0.00 | 0.00 | 0.00 | 73 | 1015.0 |
| 20260502121052 | 4 | 333 | 1.6 | 3.2 | 0.00 | 0.00 | 0.00 | 73 | 1015.1 |
| 20260502120552 | 3 | 302 | 0.0 | 1.6 | 0.00 | 0.00 | 0.00 | 73 | 1015.2 |
| 20260502115551 | 3 | 21 | 3.2 | 3.2 | 0.00 | 0.00 | 0.00 | 74 | 1015.1 |
| 20260502115051 | 3 | 0 | 0.0 | 0.0 | 0.00 | 0.00 | 0.00 | 75 | 1015.1 |
| 20260502114553 | 3 | 23 | 1.6 | 3.2 | 0.00 | 0.00 | 0.00 | 76 | 1015.0 |
| 20260502114051 | 2 | 0 | 0.0 | 0.0 | 0.00 | 0.00 | 0.00 | 80 | 1015.0 |
| 20260502113551 | 2 | 0 | 0.0 | 0.0 | 0.00 | 0.00 | 0.00 | 79 | 1015.0 |
| 20260502113051 | 2 | 0 | 0.0 | 0.0 | 0.00 | 0.00 | 0.00 | 80 | 1015.0 |
| 20260502112551 | 2 | 0 | 0.0 | 0.0 | 0.00 | 0.00 | 0.00 | 81 | 1015.0 |
| 20260502112055 | 2 | 0 | 0.0 | 0.0 | 0.00 | 0.00 | 0.00 | 80 | 1014.8 |
| 20260502111551 | 1 | 0 | 0.0 | 0.0 | 0.00 | 0.00 | 0.00 | 81 | 1014.7 |
| 20260502111051 | 1 | 0 | 0.0 | 0.0 | 0.00 | 0.00 | 0.00 | 82 | 1014.7 |
| 20260502110551 | 1 | 0 | 0.0 | 0.0 | 0.00 | 0.00 | 0.00 | 81 | 1014.7 |
| 20260502110053 | 1 | 0 | 0.0 | 0.0 | 0.00 | 0.00 | 0.00 | 80 | 1014.7 |
| 20260502105552 | 2 | 267 | 0.0 | 0.0 | 0.00 | 0.00 | 0.00 | 80 | 1014.7 |
| 20260502105052 | 2 | 0 | 0.0 | 0.0 | 0.00 | 0.00 | 0.00 | 80 | 1014.6 |
| 20260502104551 | 2 | 0 | 0.0 | 0.0 | 0.00 | 0.00 | 0.00 | 80 | 1014.6 |
| 20260502104051 | 2 | 0 | 0.0 | 0.0 | 0.00 | 0.00 | 0.00 | 79 | 1014.5 |
| 20260502103551 | 2 | 0 | 0.0 | 0.0 | 0.00 | 0.00 | 0.00 | 79 | 1014.6 |
| 20260502103052 | 2 | 188 | 0.0 | 0.0 | 0.00 | 0.00 | 0.00 | 78 | 1014.5 |
| 20260502102551 | 2 | 0 | 0.0 | 0.0 | 0.00 | 0.00 | 0.00 | 77 | 1014.5 |
| 20260502102051 | 2 | 0 | 0.0 | 0.0 | 0.00 | 0.00 | 0.00 | 77 | 1014.6 |
| 20260502101552 | 2 | 30 | 0.0 | 1.6 | 0.00 | 0.00 | 0.00 | 76 | 1014.7 |
| 20260502101051 | 2 | 0 | 0.0 | 0.0 | 0.00 | 0.00 | 0.00 | 76 | 1014.7 |
| 20260502100551 | 2 | 0 | 0.0 | 0.0 | 0.00 | 0.00 | 0.00 | 76 | 1014.7 |
| 20260502091053 | 4 | 357 | 1.6 | 1.6 | 0.00 | 0.00 | 0.00 | 68 | 1014.9 |
| 20260502090552 | 4 | 0 | 0.0 | 0.0 | 0.00 | 0.00 | 0.00 | 67 | 1014.8 |
| 20260502071051 | 6 | 93 | 0.0 | 1.6 | 0.00 | 0.00 | 0.00 | 66 | 1014.6 |
| 20260502070551 | 6 | 203 | 3.2 | 3.2 | 0.00 | 0.00 | 0.00 | 67 | 1014.6 |
| 20260502070052 | 6 | 168 | 1.6 | 6.4 | 0.00 | 0.00 | 0.00 | 72 | 1014.6 |
| 20260502065551 | 6 | 0 | 0.0 | 0.0 | 0.00 | 0.00 | 0.00 | 71 | 1014.7 |
| 20260502065053 | 6 | 121 | 0.0 | 1.6 | 0.00 | 0.00 | 0.00 | 71 | 1014.7 |
| 20260502064551 | 6 | 343 | 0.0 | 3.2 | 0.00 | 0.00 | 0.00 | 70 | 1014.8 |
| 20260502064052 | 6 | 13 | 0.0 | 1.6 | 0.00 | 0.00 | 0.00 | 70 | 1014.8 |
| 20260502063552 | 6 | 20 | 0.0 | 1.6 | 0.00 | 0.00 | 0.00 | 70 | 1014.9 |
| 20260502063052 | 6 | 336 | 1.6 | 3.2 | 0.00 | 0.00 | 0.00 | 69 | 1014.9 |
| 20260502062552 | 6 | 338 | 1.6 | 3.2 | 0.00 | 0.00 | 0.00 | 68 | 1015.0 |
| 20260502062051 | 6 | 190 | 1.6 | 3.2 | 0.00 | 0.00 | 0.00 | 68 | 1015.0 |
| 20260502061551 | 6 | 219 | 3.2 | 6.4 | 0.00 | 0.00 | 0.00 | 67 | 1015.0 |
| 20260502061051 | 6 | 317 | 0.0 | 3.2 | 0.00 | 0.00 | 0.00 | 68 | 1015.1 |
| 20260502060551 | 7 | 346 | 0.0 | 0.0 | 0.00 | 0.00 | 0.00 | 68 | 1015.1 |
| 20260502060051 | 7 | 71 | 0.0 | 1.6 | 0.00 | 0.00 | 0.00 | 70 | 1015.1 |
| 20260502055551 | 7 | 54 | 1.6 | 3.2 | 0.00 | 0.00 | 0.00 | 72 | 1015.1 |
| 20260502055051 | 7 | 64 | 1.6 | 3.2 | 0.00 | 0.00 | 0.00 | 75 | 1015.2 |
| 20260502054551 | 7 | 198 | 3.2 | 9.7 | 0.00 | 0.00 | 0.00 | 74 | 1015.2 |
| 20260502054051 | 7 | 66 | 0.0 | 1.6 | 0.00 | 0.00 | 0.00 | 75 | 1015.1 |
| 20260502053552 | 7 | 54 | 1.6 | 3.2 | 0.00 | 0.00 | 0.00 | 74 | 1015.0 |
| 20260502053052 | 7 | 0 | 0.0 | 0.0 | 0.00 | 0.00 | 0.00 | 74 | 1015.0 |
| 20260502052551 | 7 | 33 | 1.6 | 3.2 | 0.00 | 0.00 | 0.00 | 74 | 1015.0 |
| 20260502052051 | 7 | 355 | 1.6 | 3.2 | 0.00 | 0.00 | 0.00 | 73 | 1015.0 |
| 20260502051551 | 7 | 53 | 0.0 | 1.6 | 0.00 | 0.00 | 0.00 | 73 | 1015.0 |
| 20260502051052 | 7 | 3 | 1.6 | 3.2 | 0.00 | 0.00 | 0.00 | 73 | 1015.0 |
| 20260502050552 | 7 | 0 | 0.0 | 0.0 | 0.00 | 0.00 | 0.00 | 73 | 1015.0 |
| 20260502050052 | 7 | 25 | 1.6 | 3.2 | 0.00 | 0.00 | 0.00 | 73 | 1014.9 |
| 20260502045553 | 7 | 353 | 0.0 | 1.6 | 0.00 | 0.00 | 0.00 | 72 | 1015.0 |
| 20260502045052 | 7 | 61 | 0.0 | 1.6 | 0.00 | 0.00 | 0.00 | 72 | 1014.9 |
| 20260502044552 | 7 | 39 | 1.6 | 3.2 | 0.00 | 0.00 | 0.00 | 72 | 1015.0 |
| 20260502044051 | 7 | 101 | 1.6 | 3.2 | 0.00 | 0.00 | 0.00 | 72 | 1015.1 |
| 20260502043551 | 7 | 105 | 0.0 | 3.2 | 0.00 | 0.00 | 0.00 | 72 | 1015.2 |
| 20260502043052 | 7 | 344 | 0.0 | 3.2 | 0.00 | 0.00 | 0.00 | 72 | 1015.2 |
| 20260502042552 | 7 | 238 | 3.2 | 4.8 | 0.00 | 0.00 | 0.00 | 71 | 1015.2 |
| 20260502042052 | 7 | 171 | 0.0 | 0.0 | 0.00 | 0.00 | 0.00 | 71 | 1015.1 |
| 20260502041551 | 7 | 265 | 4.8 | 8.0 | 0.00 | 0.00 | 0.00 | 70 | 1015.1 |
| 20260502041052 | 8 | 233 | 3.2 | 4.8 | 0.00 | 0.00 | 0.00 | 70 | 1015.0 |
| 20260502040552 | 8 | 95 | 0.0 | 1.6 | 0.00 | 0.00 | 0.00 | 70 | 1015.1 |
| 20260502040051 | 8 | 155 | 1.6 | 3.2 | 0.00 | 0.00 | 0.00 | 69 | 1015.1 |
| 20260502035551 | 8 | 205 | 3.2 | 8.0 | 0.00 | 0.00 | 0.00 | 68 | 1015.0 |
| 20260502035052 | 8 | 41 | 1.6 | 3.2 | 0.00 | 0.00 | 0.00 | 69 | 1015.1 |
| 20260502034552 | 8 | 198 | 0.0 | 3.2 | 0.00 | 0.00 | 0.00 | 69 | 1015.1 |
| 20260502034051 | 8 | 331 | 4.8 | 6.4 | 0.00 | 0.00 | 0.00 | 69 | 1015.1 |
| 20260502033555 | 8 | 200 | 3.2 | 6.4 | 0.00 | 0.00 | 0.00 | 70 | 1015.1 |
| 20260502033051 | 8 | 127 | 0.0 | 1.6 | 0.00 | 0.00 | 0.00 | 71 | 1015.2 |
| 20260502032551 | 8 | 0 | 0.0 | 1.6 | 0.00 | 0.00 | 0.00 | 70 | 1015.4 |
| 20260502032052 | 8 | 224 | 3.2 | 8.0 | 0.00 | 0.00 | 0.00 | 70 | 1015.4 |
| 20260502031551 | 8 | 242 | 3.2 | 6.4 | 0.00 | 0.00 | 0.00 | 70 | 1015.2 |
| 20260502031051 | 8 | 199 | 1.6 | 4.8 | 0.00 | 0.00 | 0.00 | 70 | 1015.1 |
| 20260502030551 | 8 | 109 | 0.0 | 3.2 | 0.00 | 0.00 | 0.00 | 70 | 1015.2 |
| 20260502030051 | 9 | 298 | 0.0 | 1.6 | 0.00 | 0.00 | 0.00 | 69 | 1015.2 |
| 20260502025551 | 9 | 77 | 1.6 | 4.8 | 0.00 | 0.00 | 0.00 | 69 | 1015.2 |
| 20260502025052 | 9 | 302 | 0.0 | 1.6 | 0.00 | 0.00 | 0.00 | 70 | 1015.1 |
| 20260502024551 | 9 | 329 | 0.0 | 1.6 | 0.00 | 0.00 | 0.00 | 70 | 1015.0 |
| 20260502024054 | 9 | 60 | 0.0 | 1.6 | 0.00 | 0.00 | 0.00 | 71 | 1014.9 |
| 20260502023552 | 9 | 262 | 3.2 | 3.2 | 0.00 | 0.00 | 0.00 | 70 | 1014.9 |
| 20260502023051 | 9 | 313 | 3.2 | 6.4 | 0.00 | 0.00 | 0.00 | 70 | 1014.9 |
| 20260502022552 | 9 | 178 | 3.2 | 4.8 | 0.00 | 0.00 | 0.00 | 70 | 1014.7 |
| 20260502022052 | 9 | 346 | 3.2 | 4.8 | 0.00 | 0.00 | 0.00 | 70 | 1014.6 |
| 20260502021551 | 9 | 240 | 1.6 | 3.2 | 0.00 | 0.00 | 0.00 | 69 | 1014.7 |
| 20260502021054 | 9 | 273 | 3.2 | 6.4 | 0.00 | 0.00 | 0.00 | 69 | 1014.6 |
| 20260502020551 | 9 | 265 | 3.2 | 4.8 | 0.00 | 0.00 | 0.00 | 70 | 1014.5 |
| 20260502020055 | 9 | 218 | 1.6 | 3.2 | 0.00 | 0.00 | 0.00 | 69 | 1014.5 |
| 20260502015551 | 9 | 33 | 1.6 | 3.2 | 0.00 | 0.00 | 0.00 | 72 | 1014.4 |
| 20260502015053 | 9 | 40 | 0.0 | 1.6 | 0.00 | 0.00 | 0.00 | 73 | 1014.2 |
| 20260502014551 | 9 | 226 | 0.0 | 1.6 | 0.00 | 0.00 | 0.00 | 72 | 1014.0 |
| 20260502014052 | 10 | 0 | 0.0 | 0.0 | 0.00 | 0.00 | 0.00 | 73 | 1013.8 |
| 20260502013551 | 10 | 135 | 1.6 | 3.2 | 0.00 | 0.00 | 0.00 | 72 | 1013.7 |
| 20260502013051 | 10 | 143 | 0.0 | 1.6 | 0.00 | 0.00 | 0.00 | 72 | 1013.8 |
| 20260502012551 | 10 | 92 | 0.0 | 1.6 | 0.00 | 0.00 | 0.00 | 71 | 1014.0 |
| 20260502012052 | 10 | 247 | 3.2 | 4.8 | 0.00 | 0.00 | 0.00 | 72 | 1014.0 |
| 20260502011552 | 10 | 32 | 1.6 | 3.2 | 0.00 | 0.00 | 0.00 | 71 | 1013.8 |
| 20260502011051 | 10 | 307 | 0.0 | 3.2 | 0.00 | 0.00 | 0.00 | 70 | 1013.7 |
| 20260502010551 | 10 | 3 | 1.6 | 3.2 | 0.00 | 0.00 | 0.00 | 69 | 1013.6 |
| 20260502010051 | 10 | 67 | 1.6 | 3.2 | 0.00 | 0.00 | 0.00 | 68 | 1013.5 |
| 20260502005552 | 11 | 58 | 3.2 | 4.8 | 0.00 | 0.00 | 0.00 | 67 | 1013.4 |
| 20260502005051 | 11 | 63 | 1.6 | 3.2 | 0.00 | 0.00 | 0.00 | 66 | 1013.2 |
| 20260502004551 | 11 | 51 | 0.0 | 3.2 | 0.00 | 0.00 | 0.00 | 65 | 1013.1 |
| 20260502004053 | 11 | 41 | 0.0 | 3.2 | 0.00 | 0.00 | 0.00 | 63 | 1012.9 |
| 20260502003552 | 12 | 6 | 3.2 | 6.4 | 0.00 | 0.00 | 0.00 | 62 | 1012.7 |
| 20260502003052 | 12 | 318 | 0.0 | 3.2 | 0.00 | 0.00 | 0.00 | 59 | 1012.5 |
| 20260502002551 | 12 | 25 | 1.6 | 3.2 | 0.00 | 0.00 | 0.00 | 56 | 1012.4 |
| 20260502002051 | 13 | 117 | 3.2 | 3.2 | 0.00 | 0.00 | 0.00 | 55 | 1012.2 |
| 20260502001552 | 13 | 49 | 3.2 | 6.4 | 0.00 | 0.00 | 0.00 | 53 | 1012.0 |
| 20260502001052 | 13 | 255 | 6.4 | 11.3 | 0.00 | 0.00 | 0.00 | 52 | 1012.0 |
| 20260502000551 | 13 | 13 | 0.0 | 3.2 | 0.00 | 0.00 | 0.00 | 51 | 1011.9 |
| 20260502000051 | 13 | 244 | 6.4 | 9.7 | 0.00 | 0.00 | 0.00 | 50 | 1011.8 |
| 20260501235551 | 13 | 207 | 1.6 | 4.8 | 0.00 | 0.00 | 0.00 | 51 | 1011.6 |
| 20260501235052 | 14 | 353 | 4.8 | 6.4 | 0.00 | 0.00 | 0.00 | 50 | 1011.7 |
| 20260501234551 | 14 | 23 | 3.2 | 6.4 | 0.00 | 0.00 | 0.00 | 49 | 1011.6 |
| 20260501234051 | 14 | 245 | 3.2 | 6.4 | 0.00 | 0.00 | 0.00 | 47 | 1011.4 |
| 20260501233551 | 15 | 240 | 4.8 | 9.7 | 0.00 | 0.00 | 0.00 | 47 | 1011.2 |
| 20260501233051 | 15 | 292 | 0.0 | 3.2 | 0.00 | 0.00 | 0.00 | 46 | 1011.1 |
| 20260501232551 | 15 | 295 | 1.6 | 4.8 | 0.00 | 0.00 | 0.00 | 46 | 1011.1 |
| 20260501232051 | 15 | 259 | 9.7 | 14.5 | 0.00 | 0.00 | 0.00 | 43 | 1011.1 |
| 20260501231551 | 15 | 230 | 3.2 | 6.4 | 0.00 | 0.00 | 0.00 | 44 | 1011.1 |
| 20260501231052 | 15 | 332 | 6.4 | 11.3 | 0.00 | 0.00 | 0.00 | 44 | 1011.1 |
| 20260501230551 | 15 | 246 | 4.8 | 6.4 | 0.00 | 0.00 | 0.00 | 43 | 1011.0 |
| 20260501230052 | 16 | 304 | 6.4 | 9.7 | 0.00 | 0.00 | 0.00 | 43 | 1011.1 |
| 20260501225551 | 16 | 326 | 3.2 | 6.4 | 0.00 | 0.00 | 0.00 | 43 | 1011.1 |
| 20260501225051 | 16 | 212 | 3.2 | 6.4 | 0.00 | 0.00 | 0.00 | 42 | 1011.2 |
| 20260501224551 | 16 | 281 | 4.8 | 6.4 | 0.00 | 0.00 | 0.00 | 43 | 1011.2 |
| 20260501224051 | 15 | 324 | 8.0 | 11.3 | 0.00 | 0.00 | 0.00 | 43 | 1011.4 |
| 20260501223551 | 15 | 268 | 6.4 | 9.7 | 0.00 | 0.00 | 0.00 | 42 | 1011.2 |
| 20260501223051 | 16 | 229 | 11.3 | 17.7 | 0.00 | 0.00 | 0.00 | 42 | 1011.1 |
| 20260501222551 | 16 | 249 | 3.2 | 6.4 | 0.00 | 0.00 | 0.00 | 41 | 1011.2 |
| 20260501222052 | 16 | 284 | 6.4 | 11.3 | 0.00 | 0.00 | 0.00 | 41 | 1011.4 |
| 20260501221551 | 16 | 258 | 8.0 | 11.3 | 0.00 | 0.00 | 0.00 | 40 | 1011.4 |
| 20260501221051 | 16 | 245 | 4.8 | 6.4 | 0.00 | 0.00 | 0.00 | 40 | 1011.5 |
| 20260501220551 | 16 | 275 | 8.0 | 9.7 | 0.00 | 0.00 | 0.00 | 40 | 1011.4 |
| 20260501220051 | 16 | 241 | 3.2 | 4.8 | 0.00 | 0.00 | 0.00 | 41 | 1011.4 |
| 20260501215551 | 17 | 280 | 6.4 | 9.7 | 0.00 | 0.00 | 0.00 | 39 | 1011.5 |
| 20260501215053 | 17 | 268 | 6.4 | 9.7 | 0.00 | 0.00 | 0.00 | 40 | 1011.5 |
| 20260501214551 | 17 | 273 | 6.4 | 11.3 | 0.00 | 0.00 | 0.00 | 38 | 1011.5 |
| 20260501214051 | 17 | 259 | 12.9 | 20.9 | 0.00 | 0.00 | 0.00 | 37 | 1011.4 |
| 20260501213551 | 17 | 10 | 4.8 | 9.7 | 0.00 | 0.00 | 0.00 | 39 | 1011.5 |
| 20260501213052 | 17 | 325 | 3.2 | 6.4 | 0.00 | 0.00 | 0.00 | 40 | 1011.5 |
| 20260501212551 | 18 | 269 | 8.0 | 11.3 | 0.00 | 0.00 | 0.00 | 39 | 1011.5 |
| 20260501212051 | 17 | 241 | 1.6 | 4.8 | 0.00 | 0.00 | 0.00 | 39 | 1011.4 |
| 20260501211552 | 17 | 329 | 6.4 | 9.7 | 0.00 | 0.00 | 0.00 | 39 | 1011.5 |
| 20260501211052 | 17 | 211 | 1.6 | 3.2 | 0.00 | 0.00 | 0.00 | 40 | 1011.4 |